TimeEDT,TemperatureF,Dew PointF,Humidity,Sea Level PressureIn,VisibilityMPH,Wind Direction,Wind SpeedMPH,Gust SpeedMPH,PrecipitationIn,Events,Conditions,WindDirDegrees,DateUTC
12:53 AM,30.9,25.0,79,30.12,10.0,Calm,Calm,-,N/A,,Clear,0,2013-03-31 04:53:00
1:53 AM,30.0,24.1,79,30.12,10.0,Calm,Calm,-,N/A,,Clear,0,2013-03-31 05:53:00
2:53 AM,28.9,24.1,82,30.11,10.0,Calm,Calm,-,N/A,,Clear,0,2013-03-31 06:53:00
3:53 AM,28.0,24.1,85,30.10,10.0,Calm,Calm,-,N/A,,Clear,0,2013-03-31 07:53:00
4:53 AM,27.0,23.0,85,30.09,10.0,Calm,Calm,-,N/A,,Clear,0,2013-03-31 08:53:00
5:53 AM,28.0,24.1,85,30.09,10.0,Calm,Calm,-,N/A,,Clear,0,2013-03-31 09:53:00
6:53 AM,26.1,23.0,88,30.09,10.0,Calm,Calm,-,N/A,,Clear,0,2013-03-31 10:53:00
7:53 AM,30.0,25.0,82,30.09,10.0,Calm,Calm,-,N/A,,Clear,0,2013-03-31 11:53:00
8:53 AM,37.9,28.9,70,30.08,10.0,Calm,Calm,-,N/A,,Clear,0,2013-03-31 12:53:00
9:53 AM,46.0,33.1,61,30.06,10.0,Calm,Calm,-,N/A,,Clear,0,2013-03-31 13:53:00
10:53 AM,51.1,33.1,50,30.04,10.0,SSE,6.9,-,N/A,,Clear,160,2013-03-31 14:53:00
11:53 AM,57.0,28.0,33,30.00,10.0,South,13.8,19.6,N/A,,Clear,170,2013-03-31 15:53:00
12:53 PM,57.0,28.9,34,29.96,10.0,SSE,13.8,21.9,N/A,,Mostly Cloudy,150,2013-03-31 16:53:00
1:53 PM,57.9,32.0,37,29.93,10.0,SSE,11.5,-,N/A,,Overcast,160,2013-03-31 17:53:00
2:53 PM,57.0,32.0,39,29.89,10.0,SSE,9.2,18.4,N/A,,Overcast,150,2013-03-31 18:53:00
3:53 PM,55.9,34.0,44,29.86,10.0,SE,12.7,18.4,N/A,,Overcast,140,2013-03-31 19:53:00
4:53 PM,52.0,37.9,59,29.84,10.0,SE,12.7,24.2,0.00,Rain,Light Rain,140,2013-03-31 20:53:00
5:53 PM,46.9,42.1,83,29.82,7.0,SE,4.6,-,0.02,Rain,Light Rain,130,2013-03-31 21:53:00
6:23 PM,46.4,44.6,93,29.80,2.5,Variable,6.9,-,0.02,Rain,Light Rain,0,2013-03-31 22:23:00
6:32 PM,46.4,44.6,93,29.79,3.0,ESE,5.8,34.5,0.03,Rain,Light Rain,110,2013-03-31 22:32:00
6:53 PM,46.0,44.1,93,29.78,5.0,ESE,5.8,-,0.04,Rain,Light Rain,110,2013-03-31 22:53:00
7:10 PM,46.4,44.6,93,29.77,3.0,Variable,3.5,-,0.01,Rain,Light Rain,0,2013-03-31 23:10:00
7:27 PM,46.4,44.6,93,29.75,2.0,ESE,6.9,-,0.03,Rain,Light Rain,120,2013-03-31 23:27:00
7:53 PM,44.6,42.8,93,29.75,3.0,ESE,5.8,-,N/A,Rain,Light Rain,120,2013-03-31 23:53:00
8:08 PM,44.6,44.6,100,29.74,2.5,ESE,6.9,-,0.00,Rain,Light Rain,120,2013-04-01 00:08:00
8:20 PM,44.6,44.6,100,29.73,3.0,ESE,5.8,-,0.01,Rain,Light Rain,110,2013-04-01 00:20:00
8:51 PM,44.6,44.6,100,29.73,3.0,Calm,Calm,-,0.01,,Overcast,0,2013-04-01 00:51:00
8:53 PM,45.0,44.1,97,29.73,3.0,Calm,Calm,-,0.01,,Overcast,0,2013-04-01 00:53:00
9:14 PM,44.6,44.6,100,29.72,2.5,East,3.5,-,0.02,Rain,Light Rain,90,2013-04-01 01:14:00
9:29 PM,46.4,44.6,93,29.71,3.0,Calm,Calm,-,0.03,Rain,Light Rain,0,2013-04-01 01:29:00
9:53 PM,45.0,44.1,97,29.72,4.0,WNW,3.5,-,0.03,Rain,Light Rain,300,2013-04-01 01:53:00
10:31 PM,44.6,44.6,100,29.70,2.5,NNW,3.5,-,0.01,,Overcast,340,2013-04-01 02:31:00
10:53 PM,45.0,44.1,97,29.69,2.5,Calm,Calm,-,0.01,,Overcast,0,2013-04-01 02:53:00
11:01 PM,44.6,44.6,100,29.69,3.0,Calm,Calm,-,N/A,,Overcast,0,2013-04-01 03:01:00
11:09 PM,44.6,44.6,100,29.69,2.5,WNW,3.5,-,N/A,,Overcast,300,2013-04-01 03:09:00
11:22 PM,44.6,44.6,100,29.69,3.0,WNW,3.5,-,N/A,,Overcast,290,2013-04-01 03:22:00
11:53 PM,45.0,44.1,97,29.69,4.0,Calm,Calm,-,N/A,,Overcast,0,2013-04-01 03:53:00